K9UO Weather Reports


time (UTC)temp
C
wind
direction
speed
KPH
gust
KPH
rain 1hr
cm
rain 24hr
cm
rain mn
cm
humidity
%
barometer
mb
20260506024515 7 64 1.6 4.8 0.05 1.09 1.09 1 1009.1
20260506023007 7 62 1.6 6.4 0.08 1.09 1.09 1 1008.7
20260506021503 8 61 0.0 6.4 0.08 1.07 1.07 1 1008.9
20260506020059 8 63 0.0 1.6 0.10 1.07 1.07 1 1008.8
20260506014555 8 63 0.0 1.6 0.10 1.04 1.04 1 1008.6
20260506013103 8 62 0.0 1.6 0.13 1.02 1.02 1 1008.4
20260506011546 8 62 0.0 3.2 0.13 0.99 0.99 1 1008.0
20260506010053 8 59 0.0 3.2 0.13 0.97 0.97 1 1007.9
20260506004536 8 37 1.6 3.2 0.10 0.94 0.94 1 1008.1
20260506003032 8 360 4.8 8.0 0.08 0.89 0.89 1 1008.5
20260506001530 8 12 0.0 6.4 0.08 0.86 0.86 1 1008.4
20260506000023 8 12 0.0 0.0 0.05 0.84 0.84 1 1008.2
20260505234519 8 11 0.0 6.4 0.08 0.84 0.84 1 1008.1
20260505233014 8 15 1.6 14.5 0.05 0.81 0.81 1 1008.0
20260505231513 8 19 3.2 11.3 0.05 0.79 0.79 1 1008.3
20260505230005 8 18 8.0 17.7 0.05 0.79 0.79 1 1008.3
20260505224501 9 5 8.0 14.5 0.05 0.76 0.76 1 1008.3
20260505223057 9 360 8.0 16.1 0.05 0.76 0.76 1 1008.2
20260505221552 9 11 6.4 16.1 0.05 0.71 0.71 1 1008.2
20260505220048 9 351 8.0 19.3 0.05 0.71 0.71 1 1008.1
20260505214544 10 18 11.3 22.5 0.05 0.71 0.71 1 1007.9
20260505213038 10 355 9.7 14.5 0.05 0.71 0.71 1 1007.6
20260505211535 10 16 4.8 12.9 0.05 0.69 0.69 1 1007.4
20260505210030 10 5 4.8 17.7 0.08 0.69 0.69 1 1007.3
20260505204525 11 355 11.3 14.5 0.05 0.66 0.66 1 1007.1
20260505203029 11 14 1.6 4.8 0.08 0.64 0.64 1 1006.8
20260505201518 11 24 0.0 3.2 0.15 0.64 0.64 1 1006.8
20260505200012 11 22 0.0 3.2 0.15 0.61 0.61 1 1006.7
20260505194507 11 18 0.0 6.4 0.20 0.61 0.61 1 1007.3
20260505193003 11 9 1.6 3.2 0.15 0.56 0.56 1 1007.6
20260505191608 11 13 3.2 9.7 0.08 0.48 0.48 1 1007.7
20260505184550 10 5 1.6 8.0 0.00 0.41 0.41 1 1007.5
20260505183109 10 5 4.8 8.0 0.00 0.41 0.41 1 1007.3
20260505181541 10 5 3.2 8.0 0.00 0.41 0.41 1 1007.5
20260505180038 10 351 3.2 6.4 0.00 0.41 0.41 1 1007.8
20260505174537 10 355 3.2 8.0 0.00 0.41 0.41 1 1007.7
20260505173037 10 5 4.8 8.0 0.00 0.41 0.41 1 1007.5
20260505171536 10 16 8.0 12.9 0.00 0.41 0.41 1 1007.8
20260505170022 11 355 8.0 12.9 0.00 0.41 0.41 1 1007.6
20260505164515 12 16 8.0 14.5 0.03 0.41 0.41 1 1007.7
20260505163011 14 234 6.4 11.3 0.03 0.41 0.41 1 1007.5
20260505161506 13 250 3.2 12.9 0.03 0.41 0.41 1 1007.7
20260505153053 13 236 9.7 20.9 0.00 0.38 0.38 1 1007.8
20260505151548 13 229 9.7 20.9 0.00 0.38 0.38 1 1007.7
20260505124506 12 226 12.9 19.3 0.00 0.38 0.38 1 1005.6
20260505123005 12 205 11.3 17.7 0.00 0.38 0.38 1 1005.8
20260505121504 12 221 9.7 17.7 0.00 0.38 0.38 1 1005.7
20260505120117 12 227 12.9 22.5 0.00 0.38 0.38 1 1006.0
20260505114557 12 226 11.3 17.7 0.00 0.38 0.38 1 1006.0
20260505113051 12 215 8.0 17.7 0.00 0.38 0.38 1 1005.7
20260505111547 12 214 9.7 16.1 0.00 0.38 0.38 1 1005.4
20260505101529 12 213 6.4 17.7 0.00 0.38 0.38 1 1004.2
20260505100026 12 199 6.4 20.9 0.03 0.38 0.38 1 1003.9
20260505094520 12 200 11.3 22.5 0.03 0.38 0.38 1 1003.8
20260505093015 12 207 9.7 16.1 0.03 0.38 0.38 1 1003.1
20260505091522 12 195 9.7 24.1 0.08 0.38 0.38 1 1003.5
20260505090013 12 197 9.7 22.5 0.10 0.36 0.36 1 1003.7
20260505084502 12 197 11.3 25.7 0.20 0.36 0.36 1 1004.1
20260505083058 13 199 14.5 22.5 0.25 0.36 0.36 1 1005.0
20260505081555 12 203 9.7 16.1 0.23 0.30 0.30 1 1005.0
20260505080054 12 202 4.8 14.5 0.20 0.25 0.25 1 1004.7
20260505074551 12 209 6.4 20.9 0.10 0.15 0.15 1 1005.4
20260505073058 12 217 9.7 14.5 0.10 0.10 0.10 1 1005.9
20260505071537 12 360 8.0 14.5 0.08 0.08 0.08 1 1005.4
20260505070033 12 267 0.0 9.7 0.05 0.05 0.05 1 1005.4
20260505064539 12 278 3.2 12.9 0.05 0.05 0.05 1 1006.0
20260505063024 13 306 6.4 16.1 0.00 0.00 0.00 1 1005.6
20260505061530 15 234 4.8 14.5 0.00 0.00 0.00 10 1005.5
20260505060015 17 300 12.9 22.5 0.00 0.00 0.00 54 1005.2
20260505054511 18 318 8.0 16.1 0.00 0.00 0.00 57 1004.5
20260505053007 18 307 8.0 20.9 0.00 0.00 0.00 57 1003.9
20260505051506 18 213 14.5 25.7 0.00 0.00 0.00 57 1002.7
20260505041600 18 204 11.3 17.7 0.00 0.00 0.00 57 1002.2
20260505040056 18 205 11.3 22.5 0.00 0.00 0.00 57 1002.5
20260505034550 18 206 11.3 20.9 0.00 0.00 0.00 57 1002.6
20260505033050 18 219 12.9 19.3 0.00 0.00 0.00 57 1002.7
20260505031604 18 202 9.7 17.7 0.00 0.00 0.00 57 1002.9
20260505030048 18 213 9.7 19.3 0.00 0.00 0.00 57 1002.9